Location: Eaton
(41.3139°N, 82.0207°W)
Time: 08:29:57
(UTC+00:00)

METEOR 2-5 DEB - Visible Passes

Search period start: 29 January 2022 00:00
Search period end: 08 February 2022 00:00
Orbit: 797 x 837 km, 81.2° (Epoch: 26 January)

Date Brightness Start Highest point End Pass type
(mag) Time Alt. Az. Time Alt. Az. Time Alt. Az.
04 Feb ? 02:04:56 10° NNW 02:04:58 10° NNW 02:04:58 10° NNW visible
05 Feb ? 01:42:57 10° N 01:43:47 15° N 01:43:47 15° N visible
06 Feb ? 01:21:02 10° N 01:22:40 20° N 01:22:40 20° N visible
07 Feb ? 00:59:12 10° N 01:01:39 25° NNE 01:01:39 25° NNE visible
07 Feb ? 02:42:07 10° NW 02:43:01 14° NW 02:43:01 14° NW visible
